RH
69 68 65 60 57 55 57 64 73 77 67 50 40 39 43 48 51 53 52 50 48 49 58 65 69 76 80 80 78 75 73 72 71 74 76 74 74 73 61 53 58 63 59 54 52 50 47 49 51 49 46 44 40 43 51 48 42 41 34 25 19 16 14 11 10 9 8 10 11 12 13 13 12 13 12 11 13 15 17 20 23 23 22 22 21
74 76 75 71 69 64 62 64 69 76 79 74 62 48 41 42 47 51 51 50 49 58 72 76 77 80 81 81 81 76 69 68 69 72 76 76 75 74 64 56 59 66 62 54 53 52 52 60 62 56 50 48 47 53 63 60 51 43 31 23 20 16 14 12 10 9 8 10 10 11 12 13 13 13 12 12 14 18 21 24 26 25 24 24 23
77 79 80 80 80 77 73 73 73 73 75 78 78 70 59 50 46 47 52 48 45 60 79 83 81 82 85 83 80 77 68 65 68 71 76 77 76 74 66 59 59 63 61 54 54 53 57 67 71 66 53 48 54 58 60 60 53 43 30 24 20 16 14 13 11 9 9 10 11 12 12 13 13 13 13 15 18 22 26 29 29 28 25 24 23
78 79 79 81 84 84 83 81 81 80 77 75 77 78 77 73 61 51 55 56 51 61 75 78 78 80 85 83 79 79 73 70 72 73 76 76 76 74 69 65 62 61 57 55 55 52 55 60 67 70 58 51 63 69 62 56 49 38 29 25 19 16 14 13 11 10 9 10 11 12 13 14 13 13 15 19 24 28 31 33 33 30 26 24 22
76 76 76 78 83 86 86 83 83 85 82 77 77 78 79 81 79 70 69 74 70 67 70 68 69 75 83 82 77 80 78 75 76 75 76 77 76 74 73 72 65 61 60 57 56 53 53 52 53 63 66 65 71 73 60 48 42 33 26 23 18 15 15 14 12 10 10 11 12 14 14 14 14 16 21 27 31 33 34 34 34 32 29 26 23
77 77 78 79 81 84 84 83 84 86 85 80 76 78 80 80 82 83 81 86 84 80 81 76 72 76 81 81 78 80 79 76 76 75 75 77 82 83 78 75 71 68 66 61 58 55 52 48 46 53 68 72 68 65 53 37 32 27 24 23 20 17 15 15 12 10 10 12 13 15 15 15 18 24 30 36 37 38 38 38 39 37 35 32 29
80 80 80 81 83 84 84 86 86 87 88 84 78 78 81 81 81 83 84 88 87 83 83 82 84 84 81 81 78 78 79 79 77 75 72 68 74 87 85 77 76 76 69 65 65 60 50 44 41 44 56 61 58 57 48 35 29 26 26 26 23 21 18 16 12 11 13 16 17 17 19 22 28 36 43 47 47 46 47 49 49 48 47 45 42
82 80 79 80 82 84 86 87 86 85 87 88 84 79 80 83 84 84 84 87 89 83 75 73 83 90 87 84 81 76 76 79 79 75 73 66 65 79 88 82 79 81 77 75 74 65 51 43 39 39 43 45 46 45 35 33 31 23 26 33 33 32 27 19 16 22 26 23 22 25 32 39 46 55 59 59 59 58 58 59 60 59 59 58 54
84 81 77 75 76 78 80 82 82 82 84 88 88 84 85 86 89 90 87 88 90 91 86 79 81 88 90 88 86 83 77 76 80 76 72 73 71 71 82 88 82 82 84 85 81 70 56 47 44 40 36 32 32 28 19 27 39 36 36 38 37 39 36 28 26 34 40 41 46 54 61 66 68 68 67 66 65 64 64 64 65 66 65 64 62
80 76 72 69 69 70 73 76 78 78 79 82 85 87 89 90 92 93 91 89 88 90 93 90 85 85 86 86 87 89 86 81 81 77 71 74 77 70 74 87 86 83 86 89 85 76 64 53 50 47 39 34 34 34 24 26 44 50 46 44 41 39 43 46 42 44 58 71 80 80 76 76 74 71 73 73 70 69 69 69 70 71 72 72 71
69 68 66 67 69 71 72 75 77 78 76 75 76 79 84 88 90 88 86 87 87 88 91 92 90 86 81 80 86 89 89 87 83 80 74 72 78 75 72 80 87 87 88 92 87 80 74 61 55 55 52 49 49 51 39 27 38 42 40 54 59 50 54 56 45 50 76 90 89 82 76 77 78 80 82 80 76 76 75 77 81 81 80 79 77
62 63 65 69 72 74 76 77 78 78 76 73 70 70 75 82 88 88 87 88 90 92 94 93 91 89 80 74 82 88 85 85 84 82 79 74 76 78 74 75 86 91 90 93 89 83 83 74 64 63 64 62 58 61 53 37 38 39 37 49 55 50 55 56 45 58 86 92 85 79 79 85 88 89 87 84 85 84 80 80 84 86 83 79 81
59 64 67 70 72 73 74 76 78 78 75 72 69 68 70 74 80 84 87 89 88 90 94 94 90 88 84 75 75 81 81 82 83 81 82 78 75 77 77 73 79 90 92 91 90 85 86 84 78 74 73 70 66 66 64 51 41 45 50 53 58 55 51 58 66 76 87 88 84 80 84 91 93 90 88 88 88 86 83 82 83 80 75 76 82
57 62 61 62 67 68 67 68 72 77 76 74 72 70 69 70 73 77 79 81 81 82 88 91 89 86 87 85 80 82 83 81 82 84 86 83 77 76 80 76 72 84 93 90 89 87 86 89 87 86 84 79 76 71 69 63 45 45 55 56 66 65 51 66 87 86 82 84 88 87 90 94 92 89 90 90 85 75 65 70 82 76 68 72 71
60 61 53 51 58 62 63 64 67 72 75 76 76 76 74 73 73 74 76 79 79 79 82 85 87 88 93 95 89 89 90 84 81 82 85 84 79 78 82 81 72 78 92 92 88 87 87 91 91 91 91 85 82 75 69 67 52 43 45 45 58 58 51 76 96 87 79 81 88 92 93 93 89 88 91 88 83 74 49 43 67 75 68 67 51
72 72 65 59 60 63 65 68 70 73 75 75 75 75 77 79 79 79 80 81 77 75 78 82 84 87 96 98 93 95 94 84 76 76 81 83 82 82 83 86 78 74 88 95 91 89 87 92 94 92 93 90 86 80 72 69 57 45 38 38 46 47 52 79 93 84 78 79 85 92 91 89 88 88 93 87 77 73 50 27 40 53 50 45 30
85 85 82 77 75 74 72 73 77 82 84 80 75 72 74 77 80 83 85 85 82 78 80 83 83 83 88 92 94 97 93 82 77 77 79 80 83 85 83 88 85 77 86 95 93 93 90 92 96 92 92 93 90 85 77 71 61 48 37 33 35 41 59 82 88 81 75 75 85 93 88 85 90 91 95 92 69 59 49 27 25 32 29 27 21
92 90 88 86 85 85 83 82 83 85 89 88 84 79 74 72 76 82 84 85 89 91 88 85 85 84 83 84 84 87 87 84 83 82 83 84 89 91 87 90 90 82 86 95 95 95 93 92 94 92 90 92 92 89 83 74 64 51 38 32 29 36 59 81 88 84 77 77 86 91 86 86 91 91 97 90 59 47 45 28 25 29 25 22 17
93 92 91 90 89 89 89 89 88 87 89 91 88 86 83 79 80 82 82 86 94 98 95 90 91 90 88 86 82 82 86 88 87 85 90 95 96 97 94 93 91 84 85 93 95 95 94 92 91 91 91 90 91 92 88 78 69 56 40 31 28 34 57 81 89 87 85 86 87 86 87 90 88 89 94 74 42 39 39 26 27 29 23 17 12
92 92 90 88 88 87 86 88 90 89 91 94 92 92 91 86 84 83 81 83 88 90 90 92 95 93 91 91 88 86 86 89 90 88 89 94 98 100 96 94 94 87 85 91 95 96 95 91 88 90 91 90 91 91 91 84 75 66 50 34 29 34 55 79 87 87 88 90 88 83 89 92 86 89 84 52 29 33 31 26 29 25 17 12 9
84 86 84 83 83 82 82 82 84 86 90 93 93 95 95 87 85 87 83 81 83 84 86 89 92 92 93 95 92 89 86 88 93 94 91 91 96 97 93 95 99 92 89 94 96 96 95 92 89 89 89 91 92 90 90 88 81 76 67 47 32 34 52 71 81 87 86 89 89 85 90 90 79 82 71 37 26 32 28 28 28 19 13 9 8
76 80 80 80 78 77 75 73 75 83 89 90 90 94 96 92 91 93 91 87 88 90 90 89 91 91 94 97 96 91 86 86 92 94 95 93 91 89 85 87 90 87 89 95 96 96 96 95 93 91 90 91 92 90 88 87 82 80 78 61 37 33 50 63 72 83 84 85 88 88 92 87 73 74 67 39 27 32 30 27 22 14 11 9 9
79 79 77 75 71 67 65 64 69 84 93 95 94 94 94 94 94 95 95 93 93 94 91 89 91 91 93 99 99 94 84 78 80 85 91 92 86 83 81 79 80 79 81 89 95 98 98 97 96 94 92 92 91 88 87 86 83 81 81 71 46 33 45 59 65 75 82 82 86 91 93 90 80 75 66 45 30 31 30 22 17 12 9 9 10
79 74 69 67 63 60 62 63 69 82 91 96 96 92 91 91 90 90 93 94 93 94 93 89 90 92 94 96 94 92 84 73 75 83 87 87 84 82 79 80 84 82 80 87 95 99 99 97 96 94 93 95 93 89 88 87 85 84 82 79 63 41 38 54 63 69 77 80 84 91 94 94 92 80 65 47 31 30 30 19 13 11 8 11 11
72 67 63 62 61 61 64 66 73 84 89 91 90 86 87 91 92 91 93 93 91 95 96 90 89 93 95 92 85 84 85 78 80 89 91 89 90 89 83 80 82 81 82 91 97 98 98 96 95 94 92 94 94 91 89 86 85 86 83 83 82 65 44 46 61 70 72 76 82 90 94 95 95 88 80 69 44 30 28 18 10 11 9 9 11
70 66 61 60 61 63 66 67 74 87 95 94 90 89 92 96 96 92 90 89 88 90 93 90 90 94 95 93 86 82 84 84 85 91 94 94 95 94 91 85 83 83 84 91 97 97 94 93 94 94 93 94 95 93 88 85 84 85 84 85 89 84 62 46 54 70 73 74 80 89 94 94 94 93 93 93 71 38 26 20 10 9 11 9 11
71 66 63 65 65 66 68 68 72 84 96 99 95 93 95 95 94 90 85 85 88 90 91 93 95 97 96 95 92 87 86 88 88 88 91 95 94 91 89 87 89 92 91 91 95 93 89 89 92 94 93 94 94 92 89 85 82 84 87 88 88 87 76 55 50 63 74 77 79 86 92 92 95 95 91 98 93 54 26 22 13 8 11 10 10
69 66 67 68 68 68 69 71 74 80 88 94 96 95 96 95 93 89 85 86 92 93 92 94 95 96 97 95 95 92 88 90 91 90 92 96 97 93 88 83 82 88 94 96 96 92 89 91 93 94 92 93 95 93 90 86 84 88 90 88 87 85 80 69 56 56 68 79 81 83 88 90 92 97 93 94 99 71 34 23 17 9 10 11 9
70 68 68 68 69 71 71 74 79 80 81 84 89 94 98 98 94 91 89 89 92 93 92 93 93 94 96 94 95 92 88 91 94 92 93 96 96 93 88 84 80 79 84 92 92 88 90 93 92 92 90 93 98 95 91 88 86 90 90 87 87 83 82 80 68 60 63 72 79 81 85 88 89 95 96 93 97 87 51 26 20 13 9 11 10
71 70 70 68 71 75 74 78 82 79 78 81 85 93 98 99 96 92 91 91 94 96 95 95 95 95 94 93 95 93 89 90 91 90 91 92 94 92 88 88 87 80 75 80 82 81 87 90 88 87 88 92 97 95 89 87 89 92 89 86 86 84 84 86 82 76 70 67 72 77 81 86 87 88 91 92 96 95 67 33 22 17 9 10 12
74 72 72 71 72 75 74 77 81 78 81 87 90 95 100 99 96 92 91 94 95 94 93 94 96 96 96 96 96 97 94 89 88 91 91 90 93 94 92 90 89 86 83 82 80 78 84 88 84 83 87 89 91 91 88 87 92 94 89 86 88 88 89 90 89 88 84 77 72 70 71 76 80 79 81 88 96 98 81 46 24 19 12 10 12
80 74 72 72 71 74 73 73 77 78 83 89 90 93 96 95 94 91 92 95 93 87 83 89 98 100 98 97 97 98 99 96 95 96 92 90 95 98 96 92 91 92 92 90 86 83 85 88 85 83 87 89 87 87 87 89 91 92 89 87 89 92 94 93 93 93 91 90 83 75 73 72 72 70 69 80 91 97 93 63 30 20 16 10 12
85 77 72 73 74 78 76 71 73 76 78 81 84 89 91 92 91 84 81 86 91 89 85 89 98 100 97 99 101 100 98 97 98 99 94 92 95 98 97 94 93 93 89 88 92 92 87 86 87 87 86 87 89 89 89 91 92 91 89 89 89 94 96 91 92 95 93 94 92 86 84 81 77 72 67 75 87 90 93 75 40 22 17 12 13
87 80 75 76 79 82 81 75 74 74 75 81 86 89 89 90 90 83 75 75 80 87 95 99 97 91 87 86 90 96 98 97 99 100 97 94 90 89 91 92 93 93 88 88 96 95 85 81 87 92 89 87 90 90 89 92 93 90 89 91 91 95 95 88 88 93 91 93 94 90 90 89 87 85 79 82 89 88 91 80 48 26 19 14 14
87 83 81 82 83 84 84 82 81 81 82 85 90 92 88 86 90 91 86 82 78 76 84 91 85 81 81 78 81 90 92 91 93 94 96 97 90 83 86 90 86 84 87 92 96 92 82 79 83 88 90 89 89 89 90 92 92 90 91 93 92 91 88 86 89 91 89 90 91 92 94 91 91 94 92 93 94 90 94 85 52 28 22 16 15
91 86 85 86 87 87 88 87 87 91 92 89 89 92 88 85 91 94 90 91 90 80 76 78 75 76 79 76 79 84 82 81 83 84 88 93 92 84 84 85 76 75 88 96 95 91 82 78 79 83 87 89 90 90 93 96 95 93 94 93 90 86 82 84 90 91 90 88 88 92 95 92 92 93 94 98 95 88 96 89 53 29 24 18 16
97 90 84 85 90 92 95 93 91 95 98 92 88 88 87 88 92 92 87 87 90 87 85 84 81 85 84 76 77 81 84 87 83 76 75 79 81 77 75 80 83 88 97 96 95 95 87 81 82 84 87 89 89 87 88 93 95 94 93 90 88 87 85 88 90 84 83 83 84 89 90 90 93 91 95 100 89 86 100 86 46 25 22 19 19
100 94 87 90 96 97 99 98 96 98 98 93 89 88 88 88 88 88 86 85 85 87 88 82 78 88 94 90 90 92 93 93 83 77 80 77 71 67 68 76 85 92 95 92 94 95 89 87 89 88 87 87 88 89 87 89 92 89 87 89 92 90 86 86 78 66 66 74 79 84 85 88 90 92 100 94 73 78 92 67 31 23 23 21 21
100 98 95 97 99 98 99 99 99 98 94 89 88 87 87 86 85 86 85 83 83 84 85 81 77 84 91 91 94 95 91 88 83 85 94 92 82 77 80 85 87 88 89 88 90 89 85 86 86 85 88 89 91 94 93 92 91 84 83 88 90 86 79 76 68 54 52 64 72 78 82 87 89 95 100 81 56 60 63 40 24 24 23 23 25
99 99 98 97 96 95 97 97 95 94 91 87 87 86 86 85 84 83 81 80 82 83 83 84 83 83 86 86 90 90 85 82 80 81 90 97 95 89 89 93 94 92 87 83 85 88 87 86 82 81 86 89 94 96 95 97 94 85 83 81 72 69 73 77 70 52 42 47 54 60 71 82 91 100 96 66 42 42 38 27 27 26 24 28 29
96 94 92 91 92 93 93 92 89 87 86 85 84 84 84 82 80 78 75 74 79 81 80 80 81 82 84 84 86 87 85 82 79 77 81 87 89 87 85 86 90 89 83 81 88 92 91 88 86 85 86 87 91 92 90 93 91 80 79 73 58 58 73 78 69 50 36 37 39 39 50 66 79 94 91 58 33 33 31 27 28 26 27 32 32
81 80 79 80 85 89 89 86 83 80 80 81 81 82 82 81 78 76 75 74 75 77 78 80 82 85 87 86 85 84 83 82 80 79 80 81 84 90 90 86 85 84 81 84 90 92 90 90 87 86 87 88 89 87 82 83 85 77 73 67 56 61 75 79 71 55 42 45 48 38 36 46 59 73 74 53 32 30 31 30 29 28 31 34 35
71 70 70 75 84 89 87 83 80 78 77 78 77 76 77 76 73 71 73 77 81 84 88 90 90 89 87 84 85 86 86 84 81 79 80 81 84 90 91 91 92 90 89 91 92 90 90 94 90 84 85 87 88 86 81 81 84 79 68 61 58 63 73 77 75 65 53 58 66 54 35 32 42 52 52 43 34 32 33 32 30 31 33 36 39
72 71 71 78 86 89 84 79 77 75 75 78 77 71 67 65 65 64 63 69 78 83 83 84 88 90 85 81 83 87 91 90 85 82 84 85 85 85 88 95 97 94 93 93 93 92 90 89 89 88 89 92 91 89 85 81 78 72 66 65 64 64 68 70 71 68 61 62 71 68 46 28 30 39 41 38 36 35 34 34 33 33 34 35 38
76 73 74 78 80 81 79 78 78 77 79 85 87 82 74 65 59 56 56 61 68 70 65 65 75 85 87 84 82 82 88 93 92 92 94 94 91 88 90 95 93 90 91 91 92 96 92 85 85 87 89 90 88 87 89 84 72 63 65 71 72 69 68 68 68 67 63 61 65 70 60 37 23 28 34 36 37 37 38 37 36 35 36 36 37
78 75 75 75 75 75 76 78 79 78 80 86 91 92 89 80 67 57 55 56 57 58 56 56 62 72 82 88 85 79 81 86 89 92 96 97 96 93 93 94 89 85 87 89 92 97 97 91 87 85 87 89 87 86 91 90 78 67 68 72 73 74 71 69 69 68 66 62 59 62 66 50 29 24 28 32 35 37 37 37 39 42 43 44 45
84 83 81 80 80 79 80 80 78 77 82 88 90 90 92 91 83 71 65 61 58 58 61 62 63 67 76 84 86 84 84 84 86 89 93 96 95 90 89 90 89 88 90 93 96 97 96 94 89 86 88 92 90 87 89 91 83 76 74 71 71 74 72 72 75 73 69 67 63 63 69 62 45 34 31 31 34 38 42 48 56 63 65 65 66
88 89 88 89 89 88 87 86 83 84 89 94 95 93 93 95 91 85 82 79 75 75 77 79 78 77 80 82 86 92 95 94 94 94 95 97 94 91 93 94 95 95 96 98 99 94 88 85 85 85 86 87 86 86 88 89 86 84 81 75 73 73 72 75 80 79 74 73 71 71 75 72 64 58 54 50 52 58 67 77 86 90 91 90 89
82 86 90 92 92 91 90 88 87 88 89 91 93 93 94 93 90 88 89 88 87 87 87 87 85 84 87 91 94 98 99 99 98 96 94 93 90 90 93 94 95 98 98 99 100 97 91 86 84 85 85 83 82 83 85 86 86 87 83 75 72 73 72 72 75 76 78 77 75 75 79 80 79 81 83 83 83 88 93 97 98 97 95 91 86
81 86 90 90 90 88 85 82 82 82 81 81 82 82 84 85 84 86 88 90 91 92 91 90 90 88 89 92 94 96 98 99 95 89 86 85 83 84 83 81 83 89 93 94 93 92 94 96 94 91 91 92 91 90 90 91 89 89 86 79 75 76 75 73 72 77 83 84 80 79 83 87 88 92 97 98 98 99 99 96 93 87 82 79 75
83 86 86 84 81 77 71 68 69 72 75 76 76 76 77 77 78 80 82 85 90 93 92 90 90 89 90 93 94 94 96 98 94 89 86 81 78 81 82 76 74 80 86 86 81 77 80 87 92 91 90 94 96 94 95 95 92 90 89 85 81 80 79 78 79 82 86 86 86 85 87 90 91 94 98 98 96 97 94 87 83 79 75 75 75
Wind_Speed
10 11 11 11 11 12 11 10 9 9 9 10 14 17 17 17 17 17 17 17 18 17 16 15 12 10 9 8 10 12 12 14 14 13 14 14 14 13 12 11 10 9 8 7 6 5 5 4 4 5 5 4 5 3 3 3 3 3 3 3 2 2 2 1 2 2 3 3 3 3 3 4 4 5 6 7 8 8 8 8 8 9 9 9 9
11 12 14 14 13 13 13 12 11 11 12 11 11 15 17 18 19 19 19 19 19 18 17 15 13 11 9 8 11 13 14 16 16 15 14 15 15 14 14 12 10 9 8 6 5 5 4 3 3 4 5 5 5 4 4 4 5 5 4 4 3 3 2 2 3 3 3 3 3 4 4 4 5 6 7 8 9 9 9 9 9 9 10 9 9
12 14 15 16 16 16 15 14 14 14 14 14 13 14 15 16 18 19 20 20 20 20 18 16 15 13 10 10 14 15 16 17 17 17 16 16 16 16 15 13 10 9 7 5 5 5 3 2 3 4 5 5 5 5 5 6 6 5 5 4 4 3 3 3 3 4 4 4 4 4 4 5 6 7 8 9 10 9 9 9 9 9 10 9 9
13 14 15 16 17 17 17 17 17 16 16 17 16 16 16 15 16 18 18 18 20 21 21 19 17 15 12 13 16 16 17 17 17 18 18 19 18 17 16 14 11 8 6 5 4 4 3 3 3 4 5 4 4 4 4 5 5 5 5 4 4 4 4 3 4 5 5 5 5 5 6 6 7 8 9 10 10 10 10 9 9 10 9 10 10
15 15 15 16 17 17 18 18 18 18 17 18 19 18 18 17 16 18 18 17 18 19 20 21 19 17 15 15 16 17 18 19 17 18 18 18 18 18 16 14 10 6 6 5 4 4 3 3 3 3 4 3 3 4 4 5 4 4 4 4 4 4 3 3 4 6 6 5 6 7 7 8 9 10 11 11 11 10 10 10 10 10 10 10 10
15 15 15 17 17 18 19 19 19 20 19 19 20 21 20 20 18 19 19 18 20 20 20 21 19 17 18 19 18 17 19 21 20 18 18 16 16 17 17 14 9 6 6 5 4 3 3 3 3 3 4 4 4 4 4 4 3 3 4 4 4 4 4 4 5 6 6 7 8 9 10 11 12 12 12 12 11 11 11 11 11 11 11 11 11
14 15 16 17 18 18 19 19 19 20 20 20 21 22 22 22 20 21 20 21 23 22 21 22 20 19 20 23 22 18 18 20 19 18 19 19 17 16 16 14 10 6 6 6 4 3 2 2 3 3 4 5 5 4 4 4 3 3 5 5 5 5 5 5 7 7 7 8 9 11 12 13 14 13 12 12 12 12 11 12 12 12 12 11 11
14 16 16 17 18 18 18 18 18 19 19 20 22 23 24 23 22 22 23 23 24 23 23 24 22 21 22 23 23 21 19 19 18 19 20 20 20 17 14 14 11 7 7 6 5 4 2 2 2 3 3 4 4 3 3 4 4 4 5 5 6 6 6 6 8 8 9 11 12 13 13 14 14 13 12 12 11 11 12 12 12 12 12 11 11
14 15 16 17 17 17 17 17 18 18 18 19 21 23 24 24 23 23 24 25 25 24 25 25 24 23 22 22 24 23 21 20 19 20 21 20 20 19 15 13 11 9 8 7 6 5 3 3 2 2 2 2 2 2 3 4 5 5 6 6 7 7 7 7 9 10 11 13 13 13 14 14 13 12 12 11 11 11 11 11 11 11 11 11 11
14 15 15 15 16 15 15 16 18 18 18 19 20 22 24 25 25 24 25 26 28 28 25 24 25 24 22 22 24 23 21 20 19 20 21 20 20 19 17 14 12 10 9 9 8 6 5 4 2 2 3 3 2 2 2 4 5 6 7 7 7 7 7 9 10 12 13 13 12 13 14 14 13 12 12 11 11 10 9 9 9 10 10 10 10
14 14 15 15 15 15 15 16 17 18 19 20 21 22 24 26 26 27 27 27 29 29 25 24 25 24 23 23 23 23 22 21 19 20 21 21 19 19 18 15 13 12 11 10 10 8 7 5 4 4 4 4 3 2 2 4 5 6 6 7 7 7 8 9 11 13 14 13 13 14 14 14 13 12 11 10 10 9 9 8 9 9 9 9 10
13 14 14 15 15 14 14 15 17 18 19 20 21 22 24 26 27 28 29 28 28 28 25 24 24 24 25 24 22 22 23 21 20 21 22 22 20 19 19 17 15 14 13 12 11 10 9 7 6 5 4 4 4 3 3 3 4 5 6 7 7 8 9 11 12 14 14 14 14 14 14 14 12 11 9 8 8 9 8 9 9 9 9 10 11
13 13 14 15 15 15 15 15 15 17 19 20 20 21 22 25 27 28 28 28 27 27 25 24 25 26 26 26 25 24 23 22 22 23 24 24 23 20 19 19 17 16 15 14 13 11 10 9 8 7 6 6 5 5 4 4 4 5 7 8 8 8 10 12 12 13 14 15 14 14 14 13 12 11 9 8 8 8 8 9 9 9 10 11 11
15 15 15 16 16 16 16 15 15 17 19 20 20 21 21 23 25 27 28 28 27 27 26 25 27 28 26 26 27 26 24 24 22 22 24 25 24 21 20 20 19 18 17 16 15 13 12 11 10 9 9 8 7 6 5 5 5 5 7 8 9 10 11 13 13 13 15 16 15 14 13 12 11 11 10 9 7 7 8 8 9 10 11 11 11
15 15 15 15 16 17 17 16 17 18 20 21 22 22 22 23 24 26 27 28 28 27 27 27 27 28 26 25 26 25 23 24 24 23 23 24 25 23 22 22 21 20 19 18 17 15 14 13 12 11 10 9 9 8 6 6 6 6 7 7 10 11 12 14 13 13 15 16 15 14 12 11 11 11 10 8 7 7 8 8 10 10 11 11 10
15 16 16 16 17 18 18 18 18 19 20 22 23 23 23 23 24 26 28 29 29 28 28 27 27 27 25 22 21 21 21 23 25 24 24 24 26 25 23 23 23 21 20 19 18 16 15 14 13 12 12 11 10 9 8 7 7 7 7 7 9 11 13 15 14 13 15 15 14 13 12 11 11 11 10 8 6 7 8 9 10 9 10 10 10
15 16 17 18 19 20 21 21 21 21 22 23 23 23 23 23 24 26 28 30 30 29 28 27 27 28 27 23 19 18 20 23 22 22 23 26 27 26 24 24 25 23 20 20 19 17 16 16 15 14 13 12 12 11 9 8 8 8 8 8 9 11 14 15 14 13 14 14 13 12 12 11 11 10 10 8 6 7 9 10 10 9 8 8 9
15 16 17 19 21 22 23 24 23 23 23 24 25 25 24 24 24 25 27 29 30 30 30 29 28 28 29 28 26 22 20 19 19 19 21 25 27 26 25 25 25 24 21 21 20 18 17 17 17 16 15 14 13 12 11 9 8 8 9 9 9 11 14 16 15 13 12 12 12 12 12 11 11 11 11 8 6 8 10 10 10 8 8 8 9
17 17 17 18 20 22 24 25 25 25 26 27 27 26 25 25 25 25 26 28 29 31 32 31 29 29 29 30 30 30 25 20 20 19 19 23 27 27 26 26 26 25 24 23 21 19 18 19 19 17 16 15 15 14 13 11 10 9 9 10 10 11 15 17 17 14 12 11 11 11 11 10 10 12 11 9 7 10 11 11 10 9 8 9 10
17 18 18 19 20 21 22 24 25 25 26 29 29 28 26 26 26 27 26 27 28 31 32 31 30 31 31 31 30 30 29 27 26 23 21 23 26 27 26 25 25 25 25 24 23 21 20 21 20 18 18 17 16 16 15 14 12 11 10 11 11 12 16 19 19 17 14 14 12 10 11 11 10 11 11 10 9 11 11 11 10 9 9 9 10
16 17 18 19 20 22 23 23 24 24 25 27 28 28 28 27 27 28 28 29 29 31 32 33 33 33 33 34 32 30 29 29 28 26 24 23 25 27 28 26 25 25 25 25 24 23 21 22 21 19 18 17 17 17 16 15 15 13 12 12 12 13 16 19 20 19 17 16 13 11 12 12 10 11 11 10 11 11 11 10 10 10 10 10 10
15 17 19 20 21 23 24 25 25 24 25 26 26 26 28 30 30 30 30 30 30 30 32 34 35 35 35 34 33 32 30 29 29 28 25 24 24 24 26 28 27 27 28 28 27 25 23 23 22 20 19 18 18 19 17 16 16 15 14 13 13 14 15 18 20 20 19 17 15 14 14 12 10 11 12 11 12 11 11 10 11 11 11 10 10
15 17 19 21 23 24 25 26 26 25 25 26 26 25 27 28 30 32 32 31 30 30 33 34 34 35 36 34 33 33 33 32 31 30 29 28 26 24 24 27 29 28 28 28 28 27 25 25 24 23 20 18 19 19 18 18 17 16 15 15 14 14 15 17 19 20 20 19 16 15 15 13 12 12 12 12 12 11 11 11 11 12 12 11 10
15 17 19 20 22 23 24 25 26 26 26 27 26 25 26 26 27 31 33 32 32 32 34 35 34 34 34 34 33 33 33 33 31 31 31 31 30 28 24 23 27 27 26 27 28 28 27 26 25 24 21 20 21 20 18 19 19 17 17 16 14 14 15 16 17 19 21 20 18 16 15 14 14 13 12 12 12 11 11 11 12 13 12 12 11
16 18 19 19 21 22 24 25 26 26 26 26 26 25 25 24 23 25 29 31 32 33 34 34 33 33 32 32 32 32 31 32 32 31 31 32 32 29 24 21 22 24 24 25 26 27 27 27 26 25 23 21 22 21 20 20 20 18 18 17 16 15 16 16 17 18 19 20 19 18 16 16 16 14 13 12 12 11 11 11 13 13 13 12 12
17 19 19 19 21 22 23 24 24 23 23 24 24 23 22 21 20 21 24 26 29 30 32 31 31 32 32 32 33 33 31 32 32 31 31 33 34 29 23 20 18 19 21 22 23 25 27 27 27 26 24 23 22 21 21 22 20 18 19 18 17 17 16 17 18 18 19 19 18 18 18 17 16 15 15 15 14 13 11 11 12 13 13 13 13
17 18 18 19 20 20 21 22 22 20 19 19 19 18 17 17 17 20 22 23 25 27 27 27 27 28 30 33 35 33 32 32 32 31 31 33 34 29 24 21 19 18 19 20 22 24 25 26 27 27 25 24 24 23 23 23 20 19 19 18 18 19 18 18 18 19 19 18 18 19 18 17 16 15 15 16 17 16 13 12 12 13 14 13 13
16 17 18 18 19 19 20 21 20 18 17 15 14 13 14 15 17 19 20 20 21 23 23 22 22 23 25 30 33 31 29 30 30 29 30 33 34 30 26 25 23 20 20 20 21 23 24 25 26 28 27 26 26 25 24 23 22 21 21 19 19 20 20 19 19 19 20 19 19 19 19 18 17 16 15 14 18 18 14 12 13 13 14 14 14
15 16 16 16 17 19 19 18 17 16 16 15 13 13 14 16 16 17 18 18 19 21 21 21 22 23 23 25 27 27 27 28 29 28 27 30 31 28 26 27 25 23 23 23 24 24 25 26 27 28 28 27 27 26 25 24 23 23 22 21 20 21 21 20 20 20 20 21 20 20 19 18 17 17 15 13 17 19 16 14 13 13 14 15 14
14 15 15 16 17 17 18 17 16 14 14 14 13 13 14 15 15 14 14 14 16 19 20 21 22 23 23 23 25 27 28 27 28 28 27 29 29 27 27 27 26 26 25 25 25 24 25 27 27 27 27 28 28 28 26 25 24 24 23 22 21 21 20 20 20 20 20 21 21 20 20 19 18 17 16 14 16 19 18 16 14 13 14 15 15
13 14 15 16 16 17 18 18 16 13 11 11 11 11 11 12 12 11 11 11 13 15 18 21 22 22 23 24 24 27 28 28 28 27 27 28 27 26 27 27 27 26 25 25 24 23 25 26 26 26 26 26 28 28 27 25 25 25 24 22 22 21 20 20 19 20 20 21 21 21 20 20 19 18 17 15 16 18 18 17 15 14 15 16 16
12 13 15 16 16 17 18 18 16 15 14 13 13 12 11 10 10 9 8 8 9 9 10 13 18 20 21 22 23 25 28 28 27 26 26 27 27 28 27 25 24 23 23 24 24 23 24 25 25 26 25 24 27 28 27 26 25 25 24 23 22 21 20 20 20 20 20 21 21 21 21 20 20 20 19 17 17 18 17 16 15 14 15 16 16
12 13 15 16 16 18 18 17 16 16 15 14 14 13 12 11 9 8 7 6 5 5 7 5 5 9 10 11 13 18 25 26 24 25 26 27 26 25 23 21 22 22 21 22 24 23 23 24 24 24 24 24 27 28 27 26 26 25 24 23 21 20 20 20 20 21 21 21 22 22 21 20 20 20 20 19 18 18 17 16 16 15 15 16 17
11 13 15 16 17 17 17 16 15 15 14 14 13 13 13 12 9 7 6 6 5 5 6 4 1 0 3 5 5 8 17 21 21 21 24 25 24 20 19 21 20 19 18 20 22 21 22 23 24 23 24 25 26 28 27 27 27 26 24 22 21 20 19 19 20 20 20 21 22 22 22 20 20 20 20 20 19 18 18 17 16 16 16 16 17
11 13 15 16 16 17 16 15 14 15 15 14 13 13 14 13 10 9 8 6 4 4 4 3 2 1 3 6 6 6 9 13 15 16 17 19 20 17 16 17 16 15 17 20 22 21 21 22 22 23 25 26 26 27 27 27 26 25 24 23 21 21 20 20 20 19 19 19 20 22 22 21 20 20 20 20 19 18 18 18 17 18 17 17 18
12 14 14 15 15 16 16 15 15 16 15 14 13 13 14 13 13 12 11 9 6 4 2 1 1 2 3 4 5 5 7 8 9 10 10 11 12 13 13 13 15 17 19 20 21 22 21 20 21 22 24 25 25 25 25 25 24 23 23 21 20 20 20 20 19 17 16 16 18 21 21 20 20 20 20 19 18 18 19 19 19 19 18 18 19
14 14 14 15 16 17 17 17 16 15 15 15 15 14 14 14 14 13 13 12 10 8 6 5 4 3 3 5 5 5 6 6 5 5 7 9 8 9 13 15 18 20 20 19 21 22 21 21 21 22 23 25 26 25 24 24 24 23 20 16 18 20 19 18 17 16 16 17 18 20 21 20 20 20 19 19 18 18 20 20 20 20 19 18 19
15 15 16 17 18 19 19 18 16 14 14 15 15 15 15 14 14 13 12 12 11 10 10 8 7 7 4 2 4 4 4 4 5 8 10 11 10 12 15 18 19 19 19 19 20 21 21 21 21 22 24 26 26 26 24 24 25 24 19 16 18 19 18 18 17 16 17 18 18 19 20 19 19 19 19 19 18 18 20 21 21 20 18 18 19
15 16 17 18 19 19 19 17 15 14 14 15 16 16 16 15 15 14 13 13 11 10 9 7 5 6 5 4 3 4 5 3 4 7 9 11 13 15 17 18 18 18 18 18 20 21 21 21 21 22 24 25 27 27 24 24 25 22 19 20 21 19 19 19 15 13 15 17 18 18 18 18 18 18 18 18 17 18 20 21 20 19 18 19 19
17 17 18 18 17 17 17 15 14 13 13 14 17 18 17 17 16 15 15 15 13 10 9 8 6 6 5 4 3 3 4 3 2 5 7 7 8 10 13 14 14 16 18 18 20 22 22 22 22 22 23 25 27 26 24 25 27 23 21 22 23 22 22 19 13 11 13 16 16 16 18 18 19 19 18 18 18 19 20 21 20 20 19 19 19
19 19 17 17 16 16 17 16 16 15 15 16 18 19 19 19 17 17 17 17 16 13 12 11 8 6 6 6 4 3 3 2 2 4 5 5 4 6 9 10 12 15 17 18 20 22 22 21 23 23 23 26 27 25 25 27 27 24 22 23 22 22 22 19 14 13 14 14 14 15 17 18 19 20 19 19 19 20 21 21 20 20 19 19 20
18 18 18 17 16 17 17 17 18 18 19 20 20 20 20 20 20 19 19 18 17 15 14 14 11 9 9 8 6 5 4 2 1 2 4 4 3 4 7 8 10 13 17 19 21 23 23 22 24 25 26 28 28 26 26 26 25 23 24 24 23 23 22 20 19 18 17 16 14 14 16 18 18 19 19 19 19 20 21 21 20 20 20 20 20
17 18 18 17 17 17 16 17 18 20 21 20 20 19 20 20 20 21 21 20 18 17 16 15 14 12 12 11 9 8 7 4 2 2 3 3 3 4 5 8 9 11 16 20 20 21 22 22 23 25 28 30 30 28 27 25 24 25 26 24 25 25 24 23 23 22 21 19 16 15 16 18 19 19 20 20 20 21 21 21 21 20 20 20 21
18 18 18 18 17 17 16 17 18 19 19 19 18 18 18 18 18 19 20 20 20 20 20 18 16 15 14 14 12 10 9 7 4 3 3 4 4 5 6 8 10 11 14 16 16 18 21 21 22 25 28 30 30 30 29 27 26 26 27 26 25 26 24 24 24 23 21 20 18 16 16 18 20 21 21 21 21 21 22 22 22 22 22 22 22
17 18 18 18 18 17 17 18 18 19 19 19 17 16 16 15 15 15 16 18 19 20 20 20 20 18 17 16 14 11 9 7 5 3 3 3 4 5 6 7 8 10 11 12 12 13 16 17 19 24 28 29 30 31 30 29 26 27 30 29 26 25 24 24 25 23 21 21 20 18 17 19 21 22 22 22 22 22 22 22 22 23 23 23 23
17 17 17 18 18 19 19 20 20 21 22 21 18 16 15 14 13 13 13 13 14 15 16 17 18 19 19 18 15 12 10 8 6 5 5 4 3 4 6 7 7 7 8 9 8 9 12 14 17 22 26 28 29 30 30 29 28 28 30 30 27 25 26 26 26 25 22 21 22 21 20 21 22 22 22 22 22 22 22 22 23 23 23 22 22
18 18 18 18 19 20 20 20 21 22 23 22 19 18 16 14 13 13 12 12 11 12 12 12 13 16 18 19 16 13 11 10 8 8 9 9 7 6 7 8 8 7 7 7 7 8 10 14 16 17 21 23 25 27 26 25 25 25 26 28 28 27 27 27 27 26 24 23 23 23 23 22 23 24 23 23 23 22 22 22 23 23 22 21 19
20 20 20 21 22 22 22 21 22 23 24 23 21 20 18 16 15 15 14 13 12 12 13 13 14 15 17 18 17 14 11 10 10 9 9 9 8 7 5 3 5 7 7 7 7 6 6 11 14 14 15 18 21 24 24 21 19 20 22 24 24 24 25 26 27 26 24 23 24 24 24 24 24 25 24 24 23 22 21 21 20 18 17 16 15
19 20 21 23 24 24 24 24 24 25 25 24 23 21 20 19 18 17 17 15 15 15 14 14 15 16 17 17 16 14 14 15 15 14 11 9 7 8 10 9 5 3 3 2 3 5 5 9 12 11 13 16 18 21 23 22 19 18 20 21 22 23 25 26 27 26 24 23 24 24 24 24 25 26 25 23 22 21 19 17 16 15 15 14 13
19 20 21 22 23 23 24 24 24 23 24 24 22 21 21 20 20 20 20 19 18 18 17 16 15 15 16 16 15 14 14 14 14 13 12 11 9 8 9 9 8 7 9 8 5 3 1 5 8 9 12 15 16 18 19 18 17 15 16 18 20 23 24 25 27 27 25 24 24 24 24 24 25 27 26 22 19 17 17 17 17 16 14 12 10
22 22 21 21 22 23 23 23 23 23 23 23 22 21 20 19 19 19 19 20 21 20 18 17 17 16 16 16 16 15 13 11 9 10 10 10 10 9 7 6 7 7 7 8 8 9 7 3 1 3 5 9 11 12 13 13 13 12 11 12 14 16 17 20 25 26 25 24 25 25 26 26 26 27 27 24 21 20 18 18 17 15 12 10 8
Wind_Direction
253 255 257 258 260 260 262 262 260 257 253 246 238 234 230 228 228 226 224 222 222 223 224 224 210 199 206 213 227 241 258 271 274 272 272 276 285 294 305 309 306 305 304 306 307 301 299 288 282 287 287 282 271 257 229 221 206 205 204 187 188 194 182 183 176 163 162 158 148 136 132 129 129 134 132 131 128 121 118 115 115 114 111 107 100
256 257 260 264 266 264 267 269 263 258 257 256 248 241 234 230 230 231 231 229 228 227 224 224 218 214 221 233 237 242 253 263 270 270 268 272 281 289 297 302 303 300 295 297 303 304 304 280 271 282 282 274 259 234 208 209 213 215 211 203 210 212 204 210 187 168 169 163 155 151 144 140 138 140 137 132 130 125 119 113 111 113 113 108 102
265 263 263 265 267 268 271 273 270 267 265 259 250 246 239 233 230 232 234 231 228 225 223 224 224 223 231 247 241 237 246 256 266 268 267 271 278 286 292 298 301 296 287 291 300 301 294 253 252 265 275 273 247 235 223 215 220 221 215 211 211 212 209 206 183 168 170 164 156 153 147 145 142 141 137 132 130 127 121 116 113 113 113 112 107
276 272 266 264 265 269 271 272 272 271 271 266 257 252 248 244 234 229 229 227 225 223 225 228 229 229 231 242 237 232 242 253 262 267 270 273 276 282 287 294 299 291 277 280 288 291 286 265 254 246 267 277 228 226 228 216 224 222 215 214 206 207 208 193 171 166 168 161 152 150 146 145 142 138 134 130 128 125 121 118 116 114 113 112 109
288 283 274 271 269 270 270 269 269 269 269 265 262 260 256 253 243 232 228 225 224 224 229 233 234 236 232 235 235 230 235 242 250 259 267 271 275 278 284 292 290 277 267 270 272 277 285 281 267 235 247 262 215 218 232 217 220 216 209 208 197 203 202 177 161 160 159 155 151 147 142 140 137 134 131 128 125 121 119 118 116 115 112 111 109
291 291 286 284 281 278 275 273 270 268 266 261 259 261 259 257 250 243 236 233 233 230 235 239 238 241 237 234 233 229 234 240 246 253 256 262 270 273 281 287 275 263 261 257 258 261 275 280 278 244 218 222 225 236 243 222 212 209 203 199 194 193 189 171 158 155 155 154 150 143 139 136 133 132 130 128 126 121 118 117 116 114 112 110 109
291 293 292 290 289 288 286 282 275 269 265 260 257 257 258 257 252 248 244 242 244 240 241 243 242 243 241 236 234 231 237 244 249 252 254 261 265 263 275 280 264 255 251 243 251 253 264 268 272 255 220 220 234 238 235 213 192 193 191 190 187 179 178 168 155 155 157 153 146 139 137 135 133 132 131 129 126 123 119 118 116 114 112 110 109
295 294 293 291 291 290 288 285 279 271 263 259 257 255 255 255 252 249 245 247 252 250 247 248 246 244 242 240 238 237 240 247 250 249 252 260 261 256 266 272 260 249 243 242 249 243 243 248 257 257 233 232 230 215 208 191 177 183 182 178 174 169 170 162 154 152 149 145 140 138 136 135 134 132 131 129 126 123 121 120 119 117 114 113 112
297 293 293 293 292 289 285 283 280 275 266 260 258 255 254 255 253 249 248 250 252 251 247 246 247 249 251 248 244 241 243 249 250 248 251 253 252 252 257 261 257 248 243 242 239 233 230 225 233 235 212 202 191 177 184 178 172 175 172 172 170 166 162 157 154 148 140 138 137 138 137 135 134 133 131 129 124 123 124 124 122 120 120 119 119
299 294 293 294 292 288 283 281 279 276 271 265 260 257 256 256 256 254 255 255 256 256 252 248 247 249 255 253 248 247 246 250 250 246 248 248 246 251 254 254 253 249 244 238 232 229 224 211 196 188 170 156 150 147 160 162 164 165 164 168 168 164 158 153 154 146 136 136 141 143 142 138 135 133 132 128 125 127 127 125 121 121 123 122 121
297 293 294 296 296 293 287 283 280 275 273 270 267 263 260 259 260 261 262 261 260 261 258 255 249 245 249 251 251 251 249 252 252 246 246 247 245 248 251 248 245 248 243 234 231 227 222 214 198 179 165 160 158 151 150 154 157 159 160 163 161 158 154 149 150 146 141 146 152 150 144 139 136 134 133 132 132 133 131 125 121 121 123 120 119
285 286 290 294 296 296 290 285 282 277 273 271 271 269 265 262 261 264 267 267 266 264 260 258 253 244 243 246 250 253 251 251 251 250 249 248 244 245 248 244 238 242 240 233 228 223 220 219 211 197 184 181 181 176 170 165 158 161 167 163 160 159 155 150 147 146 148 155 159 153 146 141 138 133 131 134 135 135 132 127 125 124 121 119 119
290 288 290 292 293 294 291 285 282 278 274 273 272 271 268 264 261 261 263 265 266 264 263 260 255 249 245 244 247 251 253 253 249 247 248 247 246 243 243 242 237 236 237 233 226 221 220 219 216 212 205 199 196 191 182 177 174 174 173 166 162 162 158 153 150 152 155 158 158 153 148 142 137 134 134 140 139 134 132 131 131 128 124 123 124
298 297 296 297 297 295 292 288 281 275 274 272 271 270 268 265 261 257 255 257 259 260 259 256 254 255 252 247 246 249 252 254 251 247 243 243 245 241 236 238 238 234 235 233 226 222 223 221 218 216 210 204 200 197 188 184 187 180 172 168 168 167 161 154 156 162 161 159 158 155 149 144 141 142 147 154 150 140 136 136 139 136 131 131 133
290 292 294 296 297 295 290 287 282 278 276 274 273 272 271 270 265 259 254 253 255 255 254 253 254 255 255 251 249 251 251 249 249 248 245 243 241 238 234 235 237 234 233 233 229 227 225 222 222 219 211 206 202 200 192 184 191 189 178 173 173 171 163 156 161 171 167 161 161 159 153 150 148 148 155 165 162 150 145 143 144 144 142 142 141
288 289 288 288 288 287 285 282 278 277 277 276 275 273 272 272 271 266 260 256 255 254 254 254 253 251 250 249 244 245 247 246 247 247 245 242 237 234 232 232 233 233 231 232 232 230 227 221 222 223 213 208 204 201 197 186 189 196 188 182 178 172 163 159 166 176 172 166 165 162 155 152 153 155 165 177 169 159 156 150 148 150 150 145 140
295 290 287 284 280 279 279 278 276 275 276 277 277 275 274 271 270 269 265 261 259 259 258 256 254 251 248 244 236 234 242 245 245 244 243 239 233 229 229 229 229 229 230 234 233 229 230 224 221 223 214 208 206 201 198 191 190 197 194 189 184 176 168 162 164 176 176 169 168 166 159 157 160 165 179 189 179 166 164 158 157 159 159 150 140
298 295 290 287 284 281 281 280 278 276 276 277 277 276 275 273 271 270 268 266 264 264 262 258 256 253 248 246 243 241 244 245 239 237 237 234 230 227 227 226 226 228 227 231 232 229 230 227 222 221 214 208 207 203 200 194 193 196 195 192 188 179 170 160 162 178 181 173 173 172 165 166 171 177 189 197 183 170 167 164 165 169 167 157 146
299 298 295 293 292 290 287 284 281 279 277 277 276 274 274 275 275 272 270 268 267 265 264 262 259 254 248 245 245 244 244 245 239 233 226 223 223 225 225 223 223 226 226 229 232 230 229 228 222 217 214 210 208 206 203 197 195 195 192 192 192 184 169 161 166 179 182 178 183 181 172 176 182 186 191 190 176 168 167 168 172 176 174 162 151
298 299 298 298 297 298 296 292 288 285 281 276 273 273 273 272 269 267 267 265 263 262 262 262 259 255 250 244 242 242 241 242 243 240 230 219 217 221 225 224 222 224 226 228 232 231 229 226 222 216 212 211 210 209 205 200 200 196 191 190 192 188 175 168 172 180 181 182 189 190 181 183 188 190 191 182 172 168 168 173 176 179 176 165 156
299 303 303 304 304 304 303 300 297 293 289 282 275 272 270 266 263 262 262 260 258 258 258 258 256 254 252 247 242 239 240 241 242 241 235 224 216 218 221 221 221 224 225 227 230 232 230 225 223 219 214 211 210 211 206 202 205 203 197 192 192 191 182 177 178 181 184 184 188 189 185 187 189 192 193 182 175 173 173 178 180 179 175 168 161
302 306 309 310 310 308 305 303 300 295 291 288 283 278 273 266 262 262 263 261 260 258 257 257 256 254 253 251 243 235 236 239 238 236 231 225 222 223 224 220 219 223 224 225 228 230 229 225 222 219 215 212 211 211 206 204 209 209 203 195 193 193 187 185 184 183 186 186 186 189 187 186 187 192 196 188 181 181 181 183 182 178 175 171 166
307 310 312 311 308 306 305 303 299 294 290 287 284 283 280 273 266 263 262 261 261 261 259 258 257 256 254 251 245 239 236 236 238 237 231 227 226 226 227 225 224 226 227 226 227 228 228 225 222 219 215 213 213 213 209 207 209 208 205 199 195 194 191 192 192 187 187 187 186 190 190 186 186 194 199 195 189 188 188 188 185 181 177 173 172
314 315 313 309 307 306 306 305 302 296 290 287 284 282 281 279 272 266 263 261 260 259 258 259 259 257 253 246 243 242 240 236 239 243 236 231 228 224 222 222 224 229 231 229 225 225 227 225 222 221 217 216 217 216 214 210 208 206 204 200 196 198 195 194 195 190 189 189 189 193 195 191 190 194 199 199 198 196 195 193 188 184 180 177 176
320 319 317 314 313 313 311 310 308 301 291 286 285 283 279 277 275 271 266 263 261 259 259 260 260 257 251 243 240 240 238 237 239 244 240 232 226 223 221 221 224 227 230 228 225 224 225 224 223 222 220 219 219 219 218 212 206 203 203 200 198 202 201 197 196 192 192 194 193 195 200 201 197 195 196 200 204 203 199 198 193 188 185 183 181
322 323 322 319 316 314 312 312 312 306 295 286 283 282 279 277 279 278 272 267 264 262 260 258 258 255 249 242 240 239 238 236 236 239 237 230 224 220 219 220 222 226 228 226 225 225 224 223 223 221 220 220 219 220 218 211 207 204 203 202 201 203 205 201 197 195 196 198 198 199 204 208 205 203 200 198 204 208 202 199 198 194 191 189 187
325 327 325 321 317 314 314 315 316 311 303 295 288 283 280 280 283 284 280 274 268 265 261 258 258 257 252 244 240 238 238 235 233 235 235 231 225 220 219 217 212 217 227 227 224 224 224 224 222 220 219 219 219 219 216 210 207 206 204 204 204 204 206 205 201 199 199 200 202 204 208 209 210 215 213 202 203 207 202 200 203 200 197 195 194
327 330 329 327 325 324 322 321 319 314 310 304 294 290 289 285 284 284 282 278 271 267 265 262 259 255 254 251 243 236 233 232 232 234 234 232 227 221 224 225 217 215 220 223 224 223 223 223 221 220 219 218 218 217 213 209 207 206 205 207 207 205 204 204 203 202 202 203 204 207 212 213 212 218 222 212 207 207 200 201 205 203 201 201 200
329 334 336 338 340 339 338 336 328 319 315 309 299 295 293 288 286 287 284 279 272 269 268 268 263 253 250 254 248 237 230 231 232 232 229 229 226 222 225 229 228 227 223 221 223 223 222 221 221 219 216 216 217 215 211 209 206 205 205 207 208 207 205 203 203 204 206 207 208 209 212 216 218 220 223 221 218 212 202 200 206 205 205 205 203
336 340 344 349 352 350 351 352 343 329 320 316 312 307 299 292 287 286 284 281 276 273 271 270 267 258 249 248 246 236 229 229 231 230 228 227 226 222 222 227 231 234 232 228 228 228 226 223 220 218 216 213 213 213 212 209 206 205 206 207 207 207 207 206 205 207 209 210 212 213 214 216 220 223 223 222 223 218 205 199 202 206 208 208 205
345 349 352 355 357 356 358 358 355 352 349 344 340 332 320 306 296 293 293 292 286 280 276 271 269 265 254 246 241 233 227 226 227 228 230 230 229 225 221 223 228 231 232 233 235 236 231 224 219 217 216 214 212 212 211 209 206 205 206 208 207 206 209 210 209 211 212 213 213 215 217 218 220 224 226 224 225 224 215 203 199 204 211 211 207
353 357 359 359 358 357 360 360 2 11 15 13 7 0 353 338 330 335 331 313 296 291 297 284 269 261 251 246 246 236 226 224 225 228 231 231 231 230 223 220 223 226 227 229 236 240 234 225 220 215 212 211 213 213 210 207 206 205 206 208 208 206 208 211 211 212 214 215 215 215 217 219 221 224 226 226 226 226 221 208 199 204 212 212 210
2 5 4 4 360 358 2 2 4 12 17 16 11 9 9 3 360 12 15 7 351 349 13 6 274 254 249 251 257 241 226 223 226 229 233 233 231 231 228 225 224 222 222 225 232 238 233 221 215 214 210 208 212 213 210 205 204 204 207 209 208 206 209 211 211 212 214 216 216 215 215 217 220 223 224 226 226 224 221 212 203 206 213 213 212
9 11 9 8 4 0 5 7 6 9 11 11 9 7 12 14 16 23 24 24 21 18 37 56 103 289 284 265 265 239 221 220 227 229 230 231 230 232 235 233 227 219 218 223 226 229 228 217 208 208 209 207 209 212 208 205 204 204 207 210 207 206 210 212 211 212 214 215 216 216 215 216 218 222 224 224 225 224 221 215 207 208 213 214 214
9 16 14 11 8 4 7 11 11 9 7 9 12 10 12 13 11 11 12 9 5 21 60 97 150 187 265 246 242 239 223 223 235 235 229 229 227 228 234 231 224 224 226 224 222 221 222 217 207 207 208 204 207 211 208 206 205 202 203 207 209 210 212 211 210 209 209 213 216 216 217 216 217 222 224 223 225 225 221 216 212 212 214 214 214
5 17 17 11 9 7 8 11 12 13 12 14 17 16 13 15 16 16 16 16 16 22 50 108 199 249 243 232 234 238 237 245 255 251 251 254 239 227 230 224 221 233 234 225 221 220 222 219 212 210 208 203 206 210 208 209 210 205 204 208 212 214 212 210 211 211 209 212 215 217 219 217 216 221 224 222 225 224 218 216 215 214 214 214 214
7 16 17 14 15 15 14 14 12 15 18 19 21 22 20 20 23 24 23 25 35 41 40 40 20 335 265 247 249 244 247 257 264 256 257 266 258 237 235 229 224 230 231 224 220 219 223 225 220 215 209 205 208 209 208 212 210 202 203 210 212 210 206 207 210 210 209 211 213 215 218 216 215 220 220 220 223 218 213 215 216 213 213 214 214
16 19 20 20 22 22 21 21 22 25 27 26 28 30 28 26 26 28 28 28 34 40 40 36 20 10 4 293 280 289 294 269 237 233 231 230 227 224 227 229 227 229 228 225 222 222 225 228 225 222 216 210 211 210 208 209 203 196 197 200 201 203 202 201 201 201 203 206 206 209 212 213 214 215 214 216 217 212 210 213 215 214 214 215 215
28 26 25 26 27 26 26 29 34 37 35 34 38 40 36 33 30 28 29 30 34 39 41 38 16 6 13 11 352 330 325 314 243 237 230 221 219 218 219 220 223 226 225 222 221 223 226 224 221 225 223 216 212 210 206 204 201 198 197 193 192 195 194 191 193 198 200 199 197 201 206 209 209 207 206 210 212 208 209 212 214 216 217 216 217
42 37 35 34 35 36 36 38 41 41 39 40 43 44 42 39 36 31 29 33 40 42 36 30 18 8 7 2 354 310 295 315 285 247 239 229 220 219 219 215 217 223 222 218 219 220 223 223 220 222 222 217 211 206 202 203 203 202 200 197 194 191 186 183 189 199 199 194 191 194 199 201 201 199 200 206 208 207 209 212 215 219 219 218 218
52 48 44 42 44 46 45 44 44 42 41 41 41 41 41 40 38 36 35 38 42 43 37 30 22 18 17 7 350 311 280 288 273 249 255 258 242 234 234 226 225 228 223 219 219 218 220 222 220 220 217 213 209 204 199 202 204 201 197 196 195 190 185 183 186 189 188 187 189 193 196 195 195 196 199 205 208 209 211 214 217 221 221 220 220
58 53 49 48 49 50 48 48 49 47 45 45 44 44 46 46 46 45 44 43 41 38 34 31 28 27 26 17 3 347 334 329 319 266 267 268 242 232 241 229 220 226 224 217 216 219 222 222 220 219 214 209 208 203 199 201 203 200 196 193 191 189 186 186 188 186 184 186 189 195 198 196 196 197 200 205 210 212 214 217 220 223 224 224 224
55 52 50 50 52 53 52 52 51 50 48 46 45 45 47 47 48 48 46 46 45 42 39 36 33 31 27 21 13 3 2 7 3 294 266 250 210 206 231 226 217 226 229 220 214 220 226 223 222 221 216 211 206 201 199 200 201 201 200 194 190 191 192 192 193 192 190 192 196 200 200 198 199 202 205 208 212 214 216 219 222 224 225 226 227
53 51 50 52 56 57 54 50 48 47 47 46 43 41 42 43 44 44 44 45 47 48 44 37 34 33 30 24 17 11 17 23 11 312 253 221 202 205 221 228 228 237 240 230 224 229 230 225 222 221 217 212 206 201 201 200 198 199 200 198 194 195 198 198 197 197 195 195 199 204 205 202 202 205 209 212 214 216 218 220 223 225 227 228 229
57 55 55 56 57 57 54 52 50 49 50 49 43 38 39 39 36 35 39 43 45 43 37 30 27 28 30 28 22 19 22 24 12 333 278 241 220 217 224 232 235 240 246 243 241 244 239 231 226 222 217 212 207 203 204 203 199 195 196 200 201 202 206 207 205 204 202 199 200 204 206 206 207 209 212 214 217 219 221 223 225 228 231 232 233
62 62 61 59 58 57 57 57 56 55 54 51 47 42 40 36 33 33 38 42 40 33 27 24 22 21 23 25 24 24 23 19 10 355 345 336 297 260 252 249 244 242 249 254 254 249 236 228 226 222 218 213 207 205 207 209 206 200 197 201 205 209 214 215 210 208 207 205 205 206 207 208 210 212 214 216 218 221 222 225 228 230 233 235 236
65 66 64 61 60 59 59 59 59 58 57 53 50 48 44 39 36 37 40 42 42 39 37 37 35 31 31 31 29 26 22 16 7 2 3 0 341 312 285 266 257 249 245 245 249 250 235 225 224 220 214 210 206 205 205 206 206 205 203 205 208 211 214 213 210 210 209 207 209 211 212 212 211 213 215 217 220 222 224 226 228 228 229 230 228
67 68 67 65 62 61 61 60 60 60 58 54 51 50 49 47 44 44 45 47 52 57 59 57 56 54 50 45 39 32 27 28 33 34 29 19 5 357 351 299 249 235 227 224 229 236 226 221 226 222 210 207 207 205 201 202 204 201 199 201 201 202 206 206 207 210 209 208 212 215 217 216 214 215 216 215 218 220 220 221 218 210 207 206 201
66 67 69 69 66 65 63 61 61 60 58 54 51 49 48 47 47 47 45 46 50 53 54 55 57 60 59 58 58 56 54 54 54 51 43 31 27 40 48 53 66 113 119 121 210 211 201 213 225 224 211 207 210 210 211 219 224 214 204 202 201 200 202 203 208 214 212 211 214 216 217 218 217 215 211 208 209 211 205 198 191 178 169 167 164
66 67 69 70 68 65 62 60 60 60 59 56 51 47 45 42 43 44 42 41 42 41 41 44 48 55 58 59 59 58 59 60 57 51 41 28 22 30 38 38 43 62 70 59 47 56 124 202 210 210 203 196 196 203 208 216 223 218 211 214 217 214 210 209 214 217 212 211 215 215 213 214 214 211 205 195 185 183 179 169 161 157 152 150 152
72 72 72 71 69 66 63 61 60 59 59 58 54 51 49 44 43 45 44 42 41 38 36 37 38 44 50 53 52 48 46 48 49 50 47 32 18 16 21 20 21 40 51 31 18 25 24 6 164 166 177 172 174 185 191 194 200 204 208 216 222 222 220 220 221 219 215 214 217 216 212 212 211 209 206 195 170 154 156 157 149 144 141 140 147